Aeroporto :
LOGIN :

Iscrizione | Disclaimer

   EN    FR    IT 

 










Sommario :    VFR   VFR Marginale   IFR   IFR Intensivo   IFR Molto Intensivo
Visibilità : 
Base nubi : 
>= 8 km
>= 3000ft
5 / 8 km
1000 / 3000 ft
1500m / 5 km
500 / 1000 ft
800 / 1500m
200 / 500 ft
< 800m
< 200 ft
Simboli :   Temporali  Nebbia  Neve Forte  Precipitazioni Forti  Vento > 20 kt
SIGMETs :   Varie  Temporali  Ghiacco  Turbolenza  Onda orograficha  Ceneri Vulcaniche







- Altitudine del aeroporto : 404 ft
- Codice IATA : WRO


EPWR - Wroclaw

ULTIMO METAR :
  • 190530Z 31002KT 9999 FEW050CB 19/18 Q1014

METARs OBSOLETI :
  • 190500Z VRB01KT 9999 FEW067TCU 19/18 Q1014
  • 190430Z VRB02KT 9999 FEW050CB 18/17 Q1013
  • 190400Z 11005KT 9999 -SHRA FEW050CB 18/17 Q1013

TAF TAF EPWR
Valido dal 19 a 06 ore il 20 a 06 ore UTC


190530Z 1906/2006 21005KT 9999 SCT040
TEMPO 1906/1917 SHRA BKN040CB
PROB40
TEMPO 1906/1915 22015G25KT TSRA
BECMG 1921/1923 3000 BR
Nessun NOTAM noto per questo aeroporto.



MetMap, La meteo Aeronautica in un colpo d'occhio ! - Copyright ORBIFLY Dicembre 2007 - Disclaimer

ORBIFLY MET'MAP TEAM :

Programmazione e sviluppo : Alexandra Zaïnal
Concezione e sviluppo : Baudouin d'Aumeries
Co-Programmazione e sviluppo : Marc-Olivier Méhu
Supporto tecnico e logistico : Manuel Goepfert
Aiuto per la traduzione : Arnaldo La Scala

Contatto : metmap@orbifly.com




FONTI E CREDITI :

   NOAA